Stündliche Wetter Warnice

Heute, 21 Oktober, Mittwoch

Zeit Temperatur Niederschläge Wind Luftdruck Luftfeuchtigkeit
00:00 +10°C° 0.1 mm 4 m/S 756 mmHg 87%
01:00 +10°C° 0.1 mm 4 m/S 756 mmHg 89%
02:00 +10°C° 0.1 mm 4 m/S 756 mmHg 91%
03:00 +10°C° 0.1 mm 4 m/S 756 mmHg 93%
04:00 +10°C° 0.1 mm 4 m/S 755 mmHg 95%
05:00 +10°C° 0.2 mm 4 m/S 756 mmHg 94%
06:00 +10°C° 0.2 mm 4 m/S 756 mmHg 94%
07:00 +10°C° 0.2 mm 4 m/S 756 mmHg 94%
08:00 +10°C° 0.2 mm 4 m/S 756 mmHg 92%
09:00 +10°C° 0.2 mm 4 m/S 756 mmHg 90%
10:00 +11°C° 0.2 mm 4 m/S 756 mmHg 88%
11:00 +11°C° 0 mm 4 m/S 755 mmHg 84%
12:00 +12°C° 0 mm 4 m/S 755 mmHg 80%
13:00 +13°C° 0 mm 5 m/S 755 mmHg 76%
14:00 +12°C° 0 mm 5 m/S 754 mmHg 75%
15:00 +12°C° 0 mm 5 m/S 754 mmHg 74%
16:00 +12°C° 0 mm 4 m/S 754 mmHg 73%
17:00 +12°C° 0 mm 5 m/S 754 mmHg 74%
18:00 +12°C° 0 mm 5 m/S 754 mmHg 75%
19:00 +10°C° 0 mm 5 m/S 754 mmHg 76%
20:00 +12°C° 0 mm 5 m/S 754 mmHg 74%
21:00 +11°C° 0 mm 6 m/S 754 mmHg 72%
22:00 +11°C° 0 mm 6 m/S 754 mmHg 70%
23:00 +12°C° 0 mm 7 m/S 754 mmHg 69%

Morgen, 22 Oktober, Donnerstag

Zeit Temperatur Niederschläge Wind Luftdruck Luftfeuchtigkeit
00:00 +12°C° 0 mm 7 m/S 754 mmHg 68%
01:00 +14°C° 0 mm 7 m/S 754 mmHg 67%
02:00 +14°C° 0 mm 6 m/S 754 mmHg 72%
03:00 +14°C° 0 mm 6 m/S 754 mmHg 76%
04:00 +13°C° 0 mm 6 m/S 754 mmHg 81%
05:00 +13°C° 0 mm 5 m/S 755 mmHg 83%
06:00 +13°C° 0 mm 5 m/S 755 mmHg 86%
07:00 +12°C° 0 mm 5 m/S 756 mmHg 88%
08:00 +14°C° 0 mm 5 m/S 756 mmHg 83%
09:00 +15°C° 0 mm 6 m/S 756 mmHg 78%
10:00 +16°C° 0 mm 6 m/S 756 mmHg 73%
11:00 +17°C° 0 mm 6 m/S 756 mmHg 69%
12:00 +19°C° 0 mm 6 m/S 756 mmHg 66%
13:00 +20°C° 0 mm 6 m/S 756 mmHg 63%
14:00 +19°C° 0 mm 5 m/S 756 mmHg 66%
15:00 +19°C° 0 mm 5 m/S 756 mmHg 69%
16:00 +18°C° 0 mm 4 m/S 756 mmHg 71%
17:00 +18°C° 0 mm 4 m/S 756 mmHg 74%
18:00 +17°C° 0 mm 4 m/S 756 mmHg 76%
19:00 +15°C° 0 mm 4 m/S 756 mmHg 79%
20:00 +15°C° 0 mm 4 m/S 756 mmHg 79%
21:00 +15°C° 0 mm 4 m/S 756 mmHg 79%
22:00 +15°C° 0 mm 4 m/S 756 mmHg 79%
23:00 +15°C° 0.2 mm 5 m/S 756 mmHg 79%

übermorgen, 23 Oktober, Freitag

Zeit Temperatur Niederschläge Wind Luftdruck Luftfeuchtigkeit
00:00 +15°C° 0.2 mm 5 m/S 756 mmHg 79%
01:00 +15°C° 0.2 mm 6 m/S 755 mmHg 79%
02:00 +15°C° 0.1 mm 6 m/S 755 mmHg 81%
03:00 +14°C° 0.1 mm 6 m/S 755 mmHg 83%
04:00 +14°C° 0.1 mm 5 m/S 755 mmHg 84%
05:00 +14°C° 0 mm 5 m/S 755 mmHg 87%
06:00 +13°C° 0 mm 5 m/S 755 mmHg 89%
07:00 +13°C° 0 mm 4 m/S 755 mmHg 91%
08:00 +14°C° 0 mm 5 m/S 755 mmHg 85%
09:00 +15°C° 0 mm 5 m/S 755 mmHg 79%
10:00 +15°C° 0 mm 6 m/S 756 mmHg 74%
11:00 +16°C° 0 mm 6 m/S 756 mmHg 69%
12:00 +16°C° 0 mm 6 m/S 756 mmHg 64%
13:00 +17°C° 0 mm 6 m/S 756 mmHg 60%
14:00 +16°C° 0 mm 5 m/S 756 mmHg 63%
15:00 +16°C° 0 mm 3 m/S 755 mmHg 66%
16:00 +16°C° 0 mm 2 m/S 755 mmHg 69%
17:00 +15°C° 0 mm 2 m/S 755 mmHg 73%
18:00 +14°C° 0 mm 2 m/S 755 mmHg 78%
19:00 +13°C° 0 mm 2 m/S 755 mmHg 82%
20:00 +13°C° 0 mm 2 m/S 755 mmHg 82%
21:00 +13°C° 0 mm 2 m/S 755 mmHg 82%
22:00 +13°C° 0 mm 2 m/S 755 mmHg 82%
23:00 +13°C° 0.1 mm 2 m/S 755 mmHg 85%

24 Oktober, Samstag

Zeit Temperatur Niederschläge Wind Luftdruck Luftfeuchtigkeit
00:00 +13°C° 0.1 mm 2 m/S 754 mmHg 88%
01:00 +12°C° 0.1 mm 3 m/S 754 mmHg 91%
02:00 +12°C° 0.4 mm 3 m/S 754 mmHg 92%
03:00 +12°C° 0.4 mm 4 m/S 754 mmHg 92%
04:00 +12°C° 0.4 mm 4 m/S 754 mmHg 93%
05:00 +12°C° 0.6 mm 5 m/S 754 mmHg 91%
06:00 +10°C° 0.6 mm 5 m/S 754 mmHg 88%
07:00 +10°C° 0.6 mm 6 m/S 754 mmHg 86%
08:00 +10°C° 0.2 mm 6 m/S 754 mmHg 83%
09:00 +10°C° 0.2 mm 7 m/S 755 mmHg 80%
10:00 +10°C° 0.2 mm 7 m/S 755 mmHg 77%
11:00 +11°C° 0.1 mm 7 m/S 756 mmHg 71%
12:00 +11°C° 0.1 mm 8 m/S 757 mmHg 66%
13:00 +11°C° 0.1 mm 8 m/S 757 mmHg 61%
14:00 +11°C° 0 mm 7 m/S 758 mmHg 63%
15:00 +10°C° 0 mm 5 m/S 758 mmHg 65%
16:00 +11°C° 0 mm 4 m/S 758 mmHg 68%
17:00 +10°C° 0 mm 4 m/S 759 mmHg 72%
18:00 +8°C° 0 mm 4 m/S 759 mmHg 76%
19:00 +7°C° 0 mm 4 m/S 760 mmHg 80%
20:00 +8°C° 0 mm 3 m/S 760 mmHg 82%
21:00 +7°C° 0 mm 3 m/S 760 mmHg 83%
22:00 +7°C° 0 mm 3 m/S 760 mmHg 84%
23:00 +7°C° 0 mm 2 m/S 760 mmHg 85%

25 Oktober, Sonntag

Zeit Temperatur Niederschläge Wind Luftdruck Luftfeuchtigkeit
00:00 +6°C° 0 mm 2 m/S 760 mmHg 85%
01:00 +6°C° 0 mm 2 m/S 760 mmHg 86%
02:00 +6°C° 0 mm 2 m/S 760 mmHg 86%
03:00 +5°C° 0 mm 3 m/S 760 mmHg 87%
04:00 +5°C° 0 mm 3 m/S 760 mmHg 87%
05:00 +5°C° 0 mm 3 m/S 760 mmHg 89%
06:00 +5°C° 0 mm 3 m/S 759 mmHg 90%
07:00 +5°C° 0 mm 3 m/S 759 mmHg 91%
08:00 +6°C° 0 mm 4 m/S 759 mmHg 86%
09:00 +8°C° 0 mm 4 m/S 759 mmHg 82%
10:00 +11°C° 0 mm 4 m/S 759 mmHg 77%
11:00 +12°C° 0 mm 5 m/S 759 mmHg 73%
12:00 +13°C° 0 mm 5 m/S 758 mmHg 70%
13:00 +14°C° 0 mm 5 m/S 758 mmHg 66%
14:00 +14°C° 0 mm 4 m/S 757 mmHg 69%
15:00 +13°C° 0 mm 4 m/S 757 mmHg 72%
16:00 +13°C° 0 mm 3 m/S 756 mmHg 75%
17:00 +12°C° 0 mm 4 m/S 756 mmHg 77%
18:00 +11°C° 0 mm 4 m/S 756 mmHg 79%
19:00 +10°C° 0 mm 4 m/S 756 mmHg 82%
20:00 +10°C° 0 mm 4 m/S 756 mmHg 83%
21:00 +10°C° 0 mm 4 m/S 756 mmHg 84%
22:00 +8°C° 0 mm 4 m/S 756 mmHg 86%
23:00 +8°C° 0 mm 4 m/S 756 mmHg 87%

26 Oktober, Montag

Zeit Temperatur Niederschläge Wind Luftdruck Luftfeuchtigkeit
00:00 +8°C° 0 mm 4 m/S 756 mmHg 87%
01:00 +8°C° 0 mm 4 m/S 755 mmHg 88%
02:00 +8°C° 0 mm 4 m/S 755 mmHg 90%
03:00 +7°C° 0 mm 4 m/S 755 mmHg 92%
04:00 +8°C° 0 mm 3 m/S 755 mmHg 93%
05:00 +8°C° 0 mm 3 m/S 755 mmHg 94%
06:00 +7°C° 0 mm 3 m/S 755 mmHg 95%
07:00 +7°C° 0 mm 3 m/S 755 mmHg 95%
08:00 +8°C° 0 mm 3 m/S 755 mmHg 91%
09:00 +10°C° 0 mm 3 m/S 755 mmHg 86%
10:00 +11°C° 0 mm 3 m/S 755 mmHg 82%
11:00 +11°C° 0 mm 3 m/S 755 mmHg 79%
12:00 +13°C° 0 mm 2 m/S 755 mmHg 75%
13:00 +14°C° 0 mm 2 m/S 754 mmHg 72%
14:00 +14°C° 0 mm 2 m/S 754 mmHg 74%
15:00 +13°C° 0 mm 2 m/S 754 mmHg 76%
16:00 +13°C° 0 mm 1 m/S 754 mmHg 78%
17:00 +12°C° 0.2 mm 1 m/S 754 mmHg 81%
18:00 +12°C° 0.2 mm 2 m/S 755 mmHg 85%
19:00 +10°C° 0.2 mm 2 m/S 755 mmHg 89%
20:00 +11°C° 0.3 mm 1 m/S 755 mmHg 91%
21:00 +11°C° 0.3 mm 1 m/S 756 mmHg 92%
22:00 +11°C° 0.3 mm 1 m/S 756 mmHg 94%
23:00 +11°C° 0 mm 1 m/S 756 mmHg 94%
Mehr zeigen

Wir brauchen deine Erlaubnis

Meteoprog und unser Service Anbieter werden persönliche Daten aufbewahren, so wie Cookies, Geräte Bezeichnung oder ähnliche Technologien von deinem Gerät und Prozess, so wie Persönliche Daten Inhalte und Werbungen, genauso wie social Media und den Verkehr zu analysieren.

  • Aufbewahrung und/oder Zugang zu deiner Geräte Informationen.

    Cookies, Geräte Bezeichnung oder andere Informationen, können aufbewahrt oder Zugang zu deinem Gerät erhalten, für den Grund, der oben angegeben wird.

  • Personalisierte Werbung und Inhalte, Messungen, Einblick in das Publikum und Produkt Entwicklung.

    Werbungen und Inhalte können personalisiert werden, basierend auf ein Profil. Mehr Daten können besser personalisierte Werbungen und Inhalte hinzufügen. Werbung und Inhalte können gezeigt und gemessen werden. Einblicke über das Publikum, welche die Werbung gesehen haben und den Inhalt, können abgeleitet werden. So wie Daten können genutzt werden, um es zu verbessern oder die Benutzer Erfahrung zu verbessern das System und die Software.

Wenn du “Ich stimme zu” klickst, erlaubst du uns, die Cookies zu benutzen die Geräte Bezeichnung, den Web oder ähnliche Technologien zu benutzen. Deine Settings, können in deinem Gerät bei deinem Browser geändert werden.

Für den bestimmten Zweck, berechtigten Interessen beruhen darauf, mehr als auf den Inhalt. Du kannst mehr darüber in unseren Privaten und Cookie Politik lesen.